Flag for Austria Past Weather in Bruck an der Leitha, Lower Austria, Austria — Yesterday and Last 2 Weeks

Now
67 °F

Overcast.


Feels Like: 67 °F
Forecast: 61 / 88 °F
Wind: N/A

Location: Wien / Schwechat-Flughafen

Current Time: Jul 1, 2016 at 2:56:33 AM

Latest Report: Jul 1, 2016 at 2:00 AM


Visibility: 17 mi

Pressure: 30.01 "Hg

Humidity: 90%

Dew Point: 64 °F

Location of Bruck an der LeithaLocation

Past Weather in Bruck an der Leitha — Graph

°F

Bruck an der Leitha Temperature Yesterday

Maximum temperature yesterday: 85 °F (at 4:00 PM)
Minimum temperature yesterday: 63 °F (at 6:00 AM)
Average temperature yesterday: 74 °F

High & Low Weather Summary for the Past Weeks

 TemperatureHumidityPressure
High89 °F (Jun 24, 3:00 PM)98% (Jun 21, 3:00 AM)30.28 "Hg (Jun 21, 3:00 AM)
Low53 °F (Jun 18, 3:00 AM)37% (Jun 29, 5:00 PM)29.47 "Hg (Jun 17, 5:00 AM)
Average70 °F72%30.01 "Hg
* Reported Jun 16 1:00 AM — Jul 1 1:00 AM, Bruck an der Leitha, Weather by CustomWeather, © 2016

Note: Actual official high and low records may vary slightly from our data, if they occured in-between our weather recording intervals... More about our weather records

Advertising

Bruck an der Leitha Weather History for the Previous 24 Hours

Scroll right to see more
 ConditionsComfort  
Time TempWeatherWind HumidityBarometerVisibility
1:00 AM
Fri, Jul 1
69 °FOvercast.N/A83%30.01 "Hg19 mi
12:00 AM69 °FOvercast.5 mph83%30.01 "Hg16 mi
11:00 PM
Thu, Jun 30
68 °FOvercast.3 mph84%30.00 "Hg22 mi
10:00 PM71 °FRain showers. Overcast.6 mph75%29.99 "Hg28 mi
9:00 PM74 °FOvercast.8 mph64%29.99 "Hg28 mi
8:00 PM77 °FOvercast.5 mph62%29.94 "Hg25 mi
7:00 PM79 °FOvercast.7 mph57%29.93 "Hg28 mi
6:00 PM79 °FOvercast.3 mph63%29.92 "Hg22 mi
5:00 PM82 °FOvercast.3 mph52%29.91 "Hg25 mi
4:00 PM85 °FOvercast.7 mph46%29.90 "Hg14 mi
3:00 PM84 °FOvercast.8 mph48%29.90 "Hg14 mi
2:00 PM81 °FOvercast.8 mph52%29.92 "Hg19 mi
1:00 PM82 °FOvercast.9 mph51%29.93 "Hg19 mi
12:00 PM82 °FPartly sunny.9 mph52%29.92 "Hg19 mi
11:00 AM81 °FPartly sunny.7 mph60%29.93 "Hg19 mi
10:00 AM78 °FPartly sunny.7 mph62%29.93 "Hg25 mi
9:00 AM77 °FPassing clouds.6 mph65%29.94 "Hg14 mi
8:00 AM73 °FScattered clouds.6 mph70%29.93 "Hg19 mi
7:00 AM67 °FScattered clouds.5 mph87%29.94 "Hg18 mi
6:00 AM63 °FScattered clouds.N/A91%29.96 "Hg12 mi
5:00 AM65 °FScattered clouds.N/A82%29.95 "Hg15 mi
4:00 AM64 °FPassing clouds.N/A85%29.95 "Hg19 mi
3:00 AM64 °FPassing clouds.N/A85%29.95 "Hg6 mi
2:00 AM67 °FPassing clouds.N/A76%29.95 "Hg25 mi
Weather by CustomWeather, © 2016

See weather overviewHow to use our weather pages